This is the latest recevied weather packets stored in our database for station/object KI4MRC. If no packets are shown the sender has not sent any weather packets the latest 10 day(s).
| Time | Temp. | Humidity | Pressure | Rain* | Wind** | Luminosity | Snow |
|---|---|---|---|---|---|---|---|
| 1777665959 | 32.22° C | 43% | 1010.2 hPa | 0 mm | - | 57 W/m² | - |
| 1777665657 | 32.78° C | 44% | 1010.5 hPa | 0 mm | - | 102 W/m² | - |
| 1777665354 | 32.78° C | 40% | 1010.6 hPa | 0 mm | - | 160 W/m² | - |
| 1777665049 | 32.78° C | 41% | 1010.4 hPa | 0 mm | - | 128 W/m² | - |
| 1777664745 | 32.22° C | 42% | 1010.7 hPa | 0 mm | - | 66 W/m² | - |
| 1777664441 | 31.67° C | 45% | 1011 hPa | 0 mm | - | 64 W/m² | - |
| 1777664139 | 32.22° C | 45% | 1010.9 hPa | 0 mm | - | 74 W/m² | - |
| 1777663838 | 32.78° C | 43% | 1011 hPa | 0 mm | - | 84 W/m² | - |
| 1777663534 | 32.78° C | 45% | 1011 hPa | 0 mm | - | 145 W/m² | - |
| 1777663232 | 32.78° C | 45% | 1011.2 hPa | 0 mm | - | 134 W/m² | - |
| 1777662928 | 32.78° C | 44% | 1011.3 hPa | 0 mm | - | 188 W/m² | - |
| 1777662626 | 32.78° C | 43% | 1011.5 hPa | 0 mm | - | 187 W/m² | - |
| 1777662321 | 32.78° C | 44% | 1011.6 hPa | 0 mm | - | 706 W/m² | - |
| 1777662017 | 32.78° C | 47% | 1011.4 hPa | 0 mm | - | 742 W/m² | - |
| 1777661713 | 32.78° C | 49% | 1011.5 hPa | 0 mm | - | 904 W/m² | - |
| 1777661409 | 32.22° C | 48% | 1011.5 hPa | 0 mm | - | 911 W/m² | - |
| 1777661106 | 32.22° C | 46% | 1011.7 hPa | 0 mm | - | 922 W/m² | - |
| 1777660800 | 32.22° C | 46% | 1011.8 hPa | 0 mm | - | 935 W/m² | - |
| 1777660498 | 32.78° C | 47% | 1011.9 hPa | 0 mm | - | 951 W/m² | - |
| 1777660194 | 32.22° C | 49% | 1011.9 hPa | 0 mm | - | 959 W/m² | - |
| 1777659891 | 32.22° C | 48% | 1012 hPa | 0 mm | - | 971 W/m² | - |
| 1777659587 | 31.67° C | 51% | 1012 hPa | 0 mm | - | 986 W/m² | - |
| 1777659285 | 31.67° C | 51% | 1012 hPa | 0 mm | - | 1013 W/m² | - |
| 1777658982 | 32.22° C | 51% | 1012 hPa | 0 mm | - | 309 W/m² | - |
| 1777658679 | 31.67° C | 49% | 1012 hPa | 0 mm | - | 997 W/m² | - |
* Rain latest hour (hover to see other rain measurements)
** Current wind speed in m/s (hover to see current wind gust speed)